| time (UTC) | temp C | wind direction | speed KPH | gust KPH | rain 1hr cm | rain 24hr cm | rain mn cm | humidity % | barometer mb |
| 20260508024006 | 9 | 225 | 0.0 | 0.0 | 0.00 | 0.00 | 0.00 | 96 | 1011.5 |
| 20260508023007 | 9 | 225 | 0.0 | 0.0 | 0.00 | 0.00 | 0.00 | 96 | 1011.6 |
| 20260508022007 | 8 | 225 | 0.0 | 0.0 | 0.00 | 0.00 | 0.00 | 96 | 1011.6 |
| 20260508021007 | 8 | 225 | 0.0 | 0.0 | 0.00 | 0.00 | 0.00 | 96 | 1011.7 |
| 20260508020006 | 8 | 225 | 0.0 | 0.0 | 0.00 | 0.00 | 0.00 | 96 | 1011.7 |
| 20260508015006 | 9 | 225 | 0.0 | 0.0 | 0.00 | 0.00 | 0.00 | 96 | 1011.6 |
| 20260508014006 | 9 | 225 | 0.0 | 0.0 | 0.00 | 0.00 | 0.00 | 96 | 1011.7 |
| 20260508013006 | 9 | 225 | 0.0 | 0.0 | 0.00 | 0.00 | 0.00 | 96 | 1011.7 |
| 20260508011008 | 9 | 225 | 0.0 | 0.0 | 0.00 | 0.00 | 0.00 | 96 | 1012.2 |
| 20260508010007 | 9 | 225 | 0.0 | 0.0 | 0.00 | 0.00 | 0.00 | 95 | 1012.2 |
| 20260508005009 | 9 | 225 | 0.0 | 0.0 | 0.00 | 0.00 | 0.00 | 96 | 1012.2 |
| 20260508004007 | 9 | 225 | 0.0 | 0.0 | 0.00 | 0.00 | 0.00 | 95 | 1012.4 |
| 20260508003007 | 9 | 225 | 0.0 | 0.0 | 0.00 | 0.00 | 0.00 | 95 | 1012.6 |
| 20260508002007 | 10 | 225 | 0.0 | 0.0 | 0.00 | 0.00 | 0.00 | 95 | 1012.5 |
| 20260508001006 | 9 | 225 | 0.0 | 0.0 | 0.00 | 0.00 | 0.00 | 95 | 1012.7 |
| 20260508000007 | 10 | 225 | 0.0 | 0.0 | 0.00 | 0.00 | 0.00 | 95 | 1012.5 |
| 20260507235007 | 10 | 225 | 0.0 | 0.0 | 0.00 | 0.00 | 0.00 | 95 | 1012.6 |
| 20260507234007 | 10 | 225 | 0.0 | 0.0 | 0.00 | 0.00 | 0.00 | 95 | 1012.7 |
| 20260507233007 | 10 | 225 | 0.0 | 0.0 | 0.00 | 0.00 | 0.00 | 95 | 1013.0 |
| 20260507232007 | 10 | 225 | 0.0 | 0.0 | 0.00 | 0.00 | 0.00 | 95 | 1013.0 |
| 20260507231007 | 10 | 225 | 0.0 | 0.0 | 0.00 | 0.00 | 0.00 | 94 | 1013.1 |
| 20260507230006 | 10 | 225 | 0.0 | 0.0 | 0.00 | 0.00 | 0.00 | 94 | 1013.0 |
| 20260507225007 | 10 | 225 | 0.0 | 0.0 | 0.00 | 0.00 | 0.00 | 94 | 1012.9 |
| 20260507224006 | 10 | 225 | 0.0 | 0.0 | 0.00 | 0.00 | 0.00 | 94 | 1013.2 |
| 20260507223006 | 10 | 225 | 0.0 | 0.0 | 0.00 | 0.00 | 0.00 | 94 | 1013.1 |
| 20260507222006 | 10 | 225 | 0.0 | 0.0 | 0.00 | 0.00 | 0.00 | 94 | 1012.9 |
| 20260507221006 | 10 | 225 | 0.0 | 0.0 | 0.00 | 0.00 | 0.00 | 93 | 1013.0 |
| 20260507220006 | 11 | 225 | 0.0 | 0.0 | 0.00 | 0.00 | 0.00 | 93 | 1012.7 |
| 20260507213007 | 11 | 225 | 0.0 | 0.0 | 0.00 | 0.00 | 0.00 | 92 | 1012.5 |
| 20260507212007 | 11 | 225 | 0.0 | 0.0 | 0.00 | 0.00 | 0.00 | 92 | 1012.5 |
| 20260507211007 | 12 | 225 | 0.0 | 0.0 | 0.00 | 0.00 | 0.00 | 91 | 1012.8 |
| 20260507210007 | 12 | 225 | 0.0 | 1.6 | 0.00 | 0.00 | 0.00 | 90 | 1012.5 |
| 20260507205006 | 12 | 225 | 1.6 | 3.2 | 0.00 | 0.00 | 0.00 | 90 | 1012.9 |
| 20260507204006 | 12 | 225 | 0.0 | 3.2 | 0.00 | 0.00 | 0.00 | 89 | 1012.9 |
| 20260507203007 | 13 | 225 | 0.0 | 0.0 | 0.00 | 0.00 | 0.00 | 89 | 1013.0 |
| 20260507202007 | 13 | 225 | 0.0 | 1.6 | 0.00 | 0.00 | 0.00 | 88 | 1013.0 |
| 20260507201007 | 13 | 225 | 0.0 | 3.2 | 0.00 | 0.00 | 0.00 | 87 | 1012.6 |
| 20260507200006 | 13 | 225 | 0.0 | 0.0 | 0.00 | 0.00 | 0.00 | 87 | 1012.5 |
| 20260507195007 | 13 | 225 | 0.0 | 0.0 | 0.00 | 0.00 | 0.00 | 86 | 1012.7 |
| 20260507194007 | 13 | 225 | 0.0 | 0.0 | 0.00 | 0.00 | 0.00 | 85 | 1012.6 |
| 20260507193007 | 13 | 225 | 0.0 | 0.0 | 0.00 | 0.00 | 0.00 | 85 | 1012.7 |
| 20260507191006 | 15 | 225 | 0.0 | 0.0 | 0.00 | 0.00 | 0.00 | 83 | 1012.5 |
| 20260507190006 | 15 | 225 | 0.0 | 0.0 | 0.00 | 0.00 | 0.00 | 80 | 1012.6 |
| 20260507185007 | 16 | 225 | 0.0 | 3.2 | 0.00 | 0.00 | 0.00 | 77 | 1012.5 |
| 20260507183007 | 16 | 225 | 0.0 | 4.8 | 0.00 | 0.00 | 0.00 | 75 | 1012.4 |
| 20260507182007 | 17 | 270 | 1.6 | 4.8 | 0.00 | 0.00 | 0.00 | 74 | 1012.1 |
| 20260507181007 | 17 | 249 | 3.2 | 9.7 | 0.00 | 0.00 | 0.00 | 73 | 1012.3 |
| 20260507180006 | 18 | 248 | 3.2 | 12.9 | 0.00 | 0.00 | 0.00 | 70 | 1012.4 |
| 20260507175006 | 18 | 248 | 4.8 | 12.9 | 0.00 | 0.00 | 0.00 | 69 | 1012.4 |
| 20260507173007 | 18 | 250 | 6.4 | 11.3 | 0.00 | 0.00 | 0.00 | 66 | 1012.4 |
| 20260507172006 | 18 | 268 | 8.0 | 16.1 | 0.00 | 0.00 | 0.00 | 64 | 1012.2 |
| 20260507171006 | 19 | 270 | 11.3 | 16.1 | 0.00 | 0.00 | 0.00 | 61 | 1012.4 |
| 20260507165007 | 19 | 290 | 9.7 | 19.3 | 0.00 | 0.00 | 0.00 | 60 | 1012.1 |
| 20260507164007 | 19 | 226 | 8.0 | 22.5 | 0.00 | 0.00 | 0.00 | 61 | 1012.1 |
| 20260507162007 | 20 | 290 | 9.7 | 16.1 | 0.00 | 0.00 | 0.00 | 60 | 1012.3 |
| 20260507161006 | 20 | 250 | 8.0 | 14.5 | 0.00 | 0.00 | 0.00 | 59 | 1012.4 |
| 20260507160009 | 20 | 292 | 9.7 | 20.9 | 0.00 | 0.00 | 0.00 | 60 | 1012.3 |
| 20260507155007 | 20 | 289 | 9.7 | 16.1 | 0.00 | 0.00 | 0.00 | 59 | 1012.2 |
| 20260507154009 | 20 | 270 | 9.7 | 20.9 | 0.00 | 0.00 | 0.00 | 58 | 1012.5 |
| 20260507151008 | 20 | 290 | 8.0 | 19.3 | 0.00 | 0.00 | 0.00 | 59 | 1012.3 |
| 20260507145007 | 20 | 249 | 9.7 | 16.1 | 0.00 | 0.00 | 0.00 | 57 | 1012.5 |
| 20260507143008 | 20 | 271 | 11.3 | 20.9 | 0.00 | 0.00 | 0.00 | 57 | 1012.3 |
| 20260507142009 | 21 | 291 | 9.7 | 16.1 | 0.00 | 0.00 | 0.00 | 54 | 1012.7 |
| 20260507141008 | 21 | 248 | 11.3 | 19.3 | 0.00 | 0.00 | 0.00 | 52 | 1012.7 |
| 20260507140008 | 21 | 268 | 11.3 | 19.3 | 0.00 | 0.00 | 0.00 | 55 | 1012.8 |
| 20260507135007 | 21 | 248 | 9.7 | 22.5 | 0.00 | 0.00 | 0.00 | 54 | 1012.8 |
| 20260507134008 | 21 | 248 | 11.3 | 19.3 | 0.00 | 0.00 | 0.00 | 56 | 1012.9 |
| 20260507133008 | 21 | 271 | 9.7 | 22.5 | 0.00 | 0.00 | 0.00 | 55 | 1012.9 |
| 20260507132009 | 21 | 225 | 8.0 | 25.7 | 0.00 | 0.00 | 0.00 | 56 | 1012.9 |
| 20260507130007 | 21 | 312 | 8.0 | 16.1 | 0.00 | 0.00 | 0.00 | 53 | 1013.0 |
| 20260507125008 | 21 | 268 | 8.0 | 20.9 | 0.00 | 0.00 | 0.00 | 52 | 1013.1 |
| 20260507124007 | 21 | 268 | 8.0 | 19.3 | 0.00 | 0.00 | 0.00 | 53 | 1013.0 |
| 20260507123010 | 21 | 225 | 8.0 | 19.3 | 0.00 | 0.00 | 0.00 | 54 | 1013.0 |
| 20260507122007 | 21 | 292 | 8.0 | 19.3 | 0.00 | 0.00 | 0.00 | 57 | 1012.9 |
| 20260507121008 | 21 | 271 | 9.7 | 16.1 | 0.00 | 0.00 | 0.00 | 55 | 1013.1 |
| 20260507115008 | 20 | 270 | 11.3 | 22.5 | 0.00 | 0.00 | 0.00 | 58 | 1013.0 |
| 20260507114008 | 21 | 226 | 8.0 | 22.5 | 0.00 | 0.00 | 0.00 | 59 | 1013.2 |
| 20260507112008 | 20 | 226 | 6.4 | 16.1 | 0.00 | 0.51 | 0.00 | 62 | 1013.3 |
| 20260507111007 | 20 | 352 | 4.8 | 19.3 | 0.00 | 0.51 | 0.00 | 61 | 1013.2 |
| 20260507110009 | 20 | 225 | 9.7 | 11.3 | 0.00 | 0.53 | 0.00 | 60 | 1013.3 |
| 20260507105008 | 21 | 271 | 4.8 | 20.9 | 0.00 | 0.53 | 0.00 | 59 | 1013.4 |
| 20260507103007 | 20 | 266 | 6.4 | 16.1 | 0.00 | 0.53 | 0.00 | 61 | 1013.7 |
| 20260507102008 | 20 | 269 | 8.0 | 16.1 | 0.00 | 0.53 | 0.00 | 65 | 1013.8 |
| 20260507100008 | 19 | 248 | 3.2 | 9.7 | 0.00 | 0.53 | 0.00 | 69 | 1013.8 |
| 20260507095007 | 20 | 0 | 1.6 | 12.9 | 0.00 | 0.53 | 0.00 | 67 | 1013.7 |
| 20260507094008 | 20 | 21 | 3.2 | 8.0 | 0.00 | 0.53 | 0.00 | 67 | 1013.7 |
| 20260507092008 | 19 | 315 | 1.6 | 8.0 | 0.00 | 0.53 | 0.00 | 72 | 1013.6 |
| 20260507091007 | 21 | 90 | 1.6 | 3.2 | 0.00 | 0.53 | 0.00 | 67 | 1014.0 |
| 20260507090008 | 20 | 90 | 3.2 | 4.8 | 0.00 | 0.53 | 0.00 | 68 | 1013.9 |
| 20260507085007 | 20 | 110 | 1.6 | 4.8 | 0.00 | 0.53 | 0.00 | 70 | 1014.4 |
| 20260507084009 | 18 | 202 | 3.2 | 4.8 | 0.00 | 0.53 | 0.00 | 76 | 1014.0 |
| 20260507083007 | 20 | 135 | 1.6 | 8.0 | 0.00 | 0.53 | 0.00 | 71 | 1014.3 |
| 20260507082007 | 18 | 135 | 1.6 | 8.0 | 0.00 | 0.53 | 0.00 | 75 | 1014.0 |
| 20260507081008 | 18 | 135 | 1.6 | 4.8 | 0.00 | 0.53 | 0.00 | 77 | 1014.2 |
| 20260507080008 | 18 | 112 | 1.6 | 9.7 | 0.00 | 0.53 | 0.00 | 77 | 1014.1 |
| 20260507075008 | 17 | 92 | 1.6 | 3.2 | 0.00 | 0.53 | 0.00 | 77 | 1014.0 |
| 20260507074007 | 17 | 90 | 1.6 | 8.0 | 0.00 | 0.53 | 0.00 | 81 | 1014.1 |
| 20260507073009 | 16 | 68 | 1.6 | 4.8 | 0.00 | 0.53 | 0.00 | 79 | 1014.1 |
| 20260507072007 | 17 | 112 | 1.6 | 3.2 | 0.00 | 0.53 | 0.00 | 81 | 1014.1 |
| 20260507071008 | 16 | 152 | 1.6 | 8.0 | 0.00 | 0.53 | 0.00 | 82 | 1013.9 |
| 20260507070011 | 16 | 90 | 1.6 | 8.0 | 0.00 | 0.53 | 0.00 | 81 | 1013.7 |
| 20260507064008 | 15 | 68 | 3.2 | 4.8 | 0.00 | 0.56 | 0.00 | 85 | 1013.8 |
| 20260507061007 | 13 | 202 | 0.0 | 1.6 | 0.00 | 0.79 | 0.00 | 91 | 1013.7 |
| 20260507060008 | 13 | 202 | 0.0 | 3.2 | 0.00 | 0.81 | 0.00 | 95 | 1013.3 |
| 20260507055007 | 12 | 202 | 0.0 | 3.2 | 0.00 | 1.30 | 0.00 | 96 | 1013.4 |
| 20260507054007 | 12 | 202 | 0.0 | 1.6 | 0.00 | 1.78 | 0.00 | 97 | 1013.2 |
| 20260507053008 | 12 | 202 | 0.0 | 0.0 | 0.00 | 1.78 | 0.00 | 97 | 1013.0 |
| 20260507052007 | 12 | 202 | 0.0 | 0.0 | 0.00 | 1.85 | 0.00 | 97 | 1013.0 |
| 20260507051008 | 11 | 202 | 0.0 | 0.0 | 0.00 | 2.29 | 0.00 | 97 | 1013.0 |
| 20260507050007 | 11 | 202 | 0.0 | 0.0 | 0.00 | 2.36 | 0.00 | 97 | 1013.0 |
| 20260507045009 | 11 | 202 | 0.0 | 0.0 | 0.00 | 2.44 | 0.00 | 97 | 1012.8 |
| 20260507044008 | 10 | 202 | 0.0 | 0.0 | 0.00 | 2.46 | 0.00 | 97 | 1012.5 |
| 20260507043008 | 10 | 202 | 0.0 | 0.0 | 0.00 | 2.54 | 0.00 | 97 | 1012.9 |
| 20260507042007 | 10 | 202 | 0.0 | 0.0 | 0.00 | 2.84 | 0.00 | 97 | 1012.6 |
| 20260507040007 | 10 | 202 | 0.0 | 0.0 | 0.00 | 4.19 | 0.00 | 97 | 1012.6 |
| 20260507035008 | 10 | 202 | 0.0 | 0.0 | 0.00 | 4.78 | 0.00 | 97 | 1012.6 |
| 20260507034007 | 10 | 202 | 0.0 | 0.0 | 0.00 | 5.26 | 0.00 | 97 | 1012.5 |
| 20260507032008 | 11 | 202 | 0.0 | 0.0 | 0.00 | 5.49 | 0.00 | 97 | 1012.7 |
| 20260507031008 | 11 | 202 | 0.0 | 0.0 | 0.00 | 5.59 | 0.00 | 97 | 1012.7 |
| 20260507030008 | 11 | 202 | 0.0 | 0.0 | 0.00 | 5.74 | 0.00 | 97 | 1012.5 |